Location: Nebraska Star Party
(42.6000°N, 100.8833°W)
Time: 03:24:08
(UTC-05:00)

Amateur Radio Satellites - All Passes

Search period start: 25 April 2014 02:54
Search period end: 26 April 2014 02:54
Location: Nebraska Star Party, 42.6000°N, 100.8833°W

Satellite Date Start Highest point End Downlink Frequencies (MHz)
Time Altitude Azimuth
AO-Echo 25 Apr 03:00:52 03:03:58 17° 92° (E) 03:07:01 ?
Uribyol 2 25 Apr 03:02:16 03:06:32 25° 94° (E) 03:10:47 436.500 FM
OPAL 25 Apr 03:42:28 03:47:32 77° 255° (WSW) 03:52:42 ?
AO-27 25 Apr 03:45:07 03:50:15 61° 101° (ESE) 03:55:22 436.795 MHz FM
Oscar 19 25 Apr 03:45:12 03:50:25 73° 286° (WNW) 03:55:35 437.125 CW, 437.150 USB
ITAMSAT 1 25 Apr 03:54:10 03:59:21 73° 103° (ESE) 04:04:31 435.822 SSB
Oscar 16 25 Apr 03:54:41 03:59:47 56° 288° (WNW) 04:04:51 437.025 USB, Beacon 2401.1428
Gurwin Techsat 1B 25 Apr 04:12:05 04:16:56 35° 97° (E) 04:21:45 435.225 FM
AO-7 25 Apr 04:34:57 04:38:58 14° 87° (E) 04:42:58 29.400 - 29.500 MHz
KITSAT 1 25 Apr 04:37:56 04:45:14 35° 317° (NW) 04:52:35 435.175 FM
AO-Echo 25 Apr 04:38:29 04:43:04 50° 289° (WNW) 04:47:35 ?
Uribyol 2 25 Apr 04:41:18 04:46:08 41° 291° (WNW) 04:50:58 436.500 FM
TMSAT-1 25 Apr 04:56:03 05:01:19 64° 101° (ESE) 05:06:34 436.925 FM
Uosat F 25 Apr 05:02:34 05:06:42 25° 95° (E) 05:10:48 435.120 FM
AO-27 25 Apr 05:25:48 05:29:17 19° 299° (WNW) 05:32:47 436.795 MHz FM
Oscar 19 25 Apr 05:28:00 05:28:49 10° 304° (NW) 05:29:39 437.125 CW, 437.150 USB
JAS-1B 25 Apr 05:29:24 05:35:02 61° 102° (ESE) 05:41:06 435.800 - 435.900 CW/SSB
ITAMSAT 1 25 Apr 05:35:12 05:38:15 16° 300° (WNW) 05:41:18 435.822 SSB
Gurwin Techsat 1B 25 Apr 05:52:11 05:56:49 31° 294° (WNW) 06:01:25 435.225 FM
MaSat-1 25 Apr 05:54:18 05:56:47 22° 59° (ENE) 05:59:36 437.345 MHz
RS-15 25 Apr 05:54:52 06:04:43 36° 107° (ESE) 06:14:16 29.354 - 29.394 USB, Beacon 29.352 USB
AO-7 25 Apr 06:24:43 06:33:04 75° 106° (ESE) 06:41:24 29.400 - 29.500 MHz
STRAND 1 25 Apr 06:31:53 06:35:58 25° 64° (ENE) 06:40:04 ?
TMSAT-1 25 Apr 06:37:12 06:40:44 18° 299° (WNW) 06:44:15 436.925 FM
KITSAT 1 25 Apr 06:39:24 06:43:33 14° 345° (NNW) 06:47:42 435.175 FM
Uosat F 25 Apr 06:40:58 06:45:35 38° 292° (WNW) 06:50:11 435.120 FM
Hamsat 25 Apr 06:59:41 07:02:37 17° 92° (E) 07:05:31 145.90 MHz
JAS-2 25 Apr 07:17:05 07:18:52 11° 89° (E) 07:20:42 435.800 - 435.900 CW/SSB, 435.910 FM
Sapphire 25 Apr 07:21:01 07:22:58 12° 33° (NNE) 07:24:55 437.095 MHz 1200 baud AX-25 AFSK
JAS-1B 25 Apr 07:21:23 07:25:19 20° 299° (WNW) 07:29:23 435.800 - 435.900 CW/SSB
MaSat-1 25 Apr 07:32:31 07:35:03 21° 249° (WSW) 07:37:55 437.345 MHz
PCSat 25 Apr 08:03:55 08:08:09 23° 44° (NE) 08:12:22 145.825 MHz
RS-15 25 Apr 08:05:09 08:16:22 68° 309° (NW) 08:27:18 29.354 - 29.394 USB, Beacon 29.352 USB
STRAND 1 25 Apr 08:10:05 08:14:55 42° 261° (W) 08:19:46 ?
AO-7 25 Apr 08:18:29 08:25:07 28° 306° (NW) 08:31:46 29.400 - 29.500 MHz
Hamsat 25 Apr 08:34:39 08:38:48 44° 288° (WNW) 08:42:57 145.90 MHz
KITSAT 1 25 Apr 08:38:49 08:43:09 15° 17° (NNE) 08:47:28 435.175 FM
SO-67 25 Apr 08:55:54 08:59:24 64° 100° (E) 09:02:51 435.3500 MHz FM
JAS-2 25 Apr 08:58:57 09:04:33 85° 104° (ESE) 09:10:50 435.800 - 435.900 CW/SSB, 435.910 FM
Sapphire 25 Apr 09:02:22 09:07:41 53° 55° (NE) 09:12:58 437.095 MHz 1200 baud AX-25 AFSK
Oscar 10/S400 25 Apr 09:29:28 10:43:32 64° 199° (SSW) 18:56:19 145.825 - 145.975 CW/USB, Beacon 145.810 USB
Saudisat 1A 25 Apr 09:30:34 09:33:18 16° 110° (ESE) 09:36:02 436.775 MHz
HO-68 25 Apr 09:46:06 09:51:25 22° 92° (E) 09:56:42 435.675 MHz FM
PCSat 25 Apr 09:46:40 09:52:03 66° 244° (WSW) 09:57:24 145.825 MHz
RS-15 25 Apr 10:22:14 10:31:14 27° 338° (NNW) 10:40:11 29.354 - 29.394 USB, Beacon 29.352 USB
Oscar 11 25 Apr 10:31:55 10:34:39 16° 92° (E) 10:37:22 145.825 FM, Beacon 2401.500 USB
KITSAT 1 25 Apr 10:33:53 10:41:21 38° 44° (NE) 10:48:43 435.175 FM
JAS-2 25 Apr 10:46:05 10:49:05 15° 300° (WNW) 10:52:14 435.800 - 435.900 CW/SSB, 435.910 FM
Sapphire 25 Apr 10:46:34 10:50:43 23° 253° (WSW) 10:54:52 437.095 MHz 1200 baud AX-25 AFSK
Saudisat 1A 25 Apr 11:08:02 11:12:27 59° 307° (NW) 11:16:52 436.775 MHz
HO-68 25 Apr 11:32:34 11:39:44 73° 290° (WNW) 11:46:53 435.675 MHz FM
Oscar 11 25 Apr 12:06:54 12:11:06 47° 288° (WNW) 12:15:17 145.825 FM, Beacon 2401.500 USB
FUNcube-1 25 Apr 12:15:49 12:20:08 70° 102° (ESE) 12:24:33 145.950 - 145.970 MHz USB
KITSAT 1 25 Apr 12:29:13 12:37:08 59° 246° (WSW) 12:44:58 435.175 FM
RS-15 25 Apr 12:40:08 12:48:35 24° 14° (NNE) 12:57:02 29.354 - 29.394 USB, Beacon 29.352 USB
Saudisat 1A 25 Apr 12:51:33 12:53:00 11° 327° (NNW) 12:54:26 436.775 MHz
ISS 25 Apr 13:07:45 13:09:51 16° 132° (SE) 13:11:58 145.800 FM
HO-68 25 Apr 13:22:21 13:26:14 16° 309° (NW) 13:30:06 435.675 MHz FM
Oscar 19 25 Apr 13:25:01 13:29:00 23° 64° (ENE) 13:33:00 437.125 CW, 437.150 USB
AO-27 25 Apr 13:27:50 13:30:25 14° 58° (ENE) 13:32:59 436.795 MHz FM
Oscar 16 25 Apr 13:33:59 13:38:22 29° 66° (ENE) 13:42:48 437.025 USB, Beacon 2401.1428
ITAMSAT 1 25 Apr 13:36:10 13:39:16 16° 60° (ENE) 13:42:22 435.822 SSB
FUNcube-1 25 Apr 13:54:18 13:56:02 12° 298° (WNW) 13:57:46 145.950 - 145.970 MHz USB
AO-Echo 25 Apr 14:14:00 14:18:17 27° 66° (ENE) 14:22:29 ?
Uribyol 2 25 Apr 14:20:46 14:25:34 41° 69° (ENE) 14:30:24 436.500 FM
TMSAT-1 25 Apr 14:40:44 14:43:38 15° 59° (ENE) 14:46:32 436.925 FM
ISS 25 Apr 14:42:55 14:46:13 67° 329° (NNW) 14:49:33 145.800 FM
RS-15 25 Apr 14:53:34 15:04:13 53° 45° (NE) 15:15:04 29.354 - 29.394 USB, Beacon 29.352 USB
Oscar 19 25 Apr 15:03:05 15:08:02 47° 261° (W) 15:13:02 437.125 CW, 437.150 USB
AO-27 25 Apr 15:04:02 15:09:13 84° 256° (WSW) 15:14:26 436.795 MHz FM
SO-50 25 Apr 15:09:25 15:13:54 81° 122° (ESE) 15:18:26 436.795 FM
Oscar 16 25 Apr 15:12:54 15:17:36 36° 263° (W) 15:22:21 437.025 USB, Beacon 2401.1428
ITAMSAT 1 25 Apr 15:13:01 15:18:10 71° 257° (WSW) 15:23:21 435.822 SSB
Gurwin Techsat 1B 25 Apr 15:33:48 15:38:59 59° 72° (ENE) 15:44:13 435.225 FM
AO-7 25 Apr 15:34:17 15:40:38 26° 53° (NE) 15:46:59 29.400 - 29.500 MHz
AO-Echo 25 Apr 15:52:06 15:56:54 38° 262° (W) 16:01:35 ?
OPAL 25 Apr 15:52:10 15:56:33 27° 97° (E) 16:00:54 ?
Uribyol 2 25 Apr 16:01:00 16:05:11 25° 266° (W) 16:09:24 436.500 FM
JAS-1B 25 Apr 16:14:40 16:22:03 60° 71° (ENE) 16:28:18 435.800 - 435.900 CW/SSB
Uosat F 25 Apr 16:16:25 16:21:02 39° 68° (ENE) 16:25:40 435.120 FM
TMSAT-1 25 Apr 16:17:35 16:22:53 80° 257° (WSW) 16:28:12 436.925 FM
ISS 25 Apr 16:20:49 16:23:24 20° 348° (NNW) 16:26:00 145.800 FM
SO-50 25 Apr 16:52:10 16:55:03 17° 322° (NW) 16:57:58 436.795 FM
UOSAT-12 25 Apr 16:54:47 16:59:12 54° 119° (ESE) 17:03:45 437.025 FM, 437.400 FM
RS-15 25 Apr 17:06:12 17:16:32 50° 249° (WSW) 17:27:09 29.354 - 29.394 USB, Beacon 29.352 USB
Gurwin Techsat 1B 25 Apr 17:15:47 17:19:21 18° 269° (W) 17:22:56 435.225 FM
AO-7 25 Apr 17:24:16 17:32:33 81° 253° (WSW) 17:40:53 29.400 - 29.500 MHz
OPAL 25 Apr 17:30:39 17:35:32 41° 294° (WNW) 17:40:22 ?
Hamsat 25 Apr 17:54:54 17:57:10 14° 63° (ENE) 17:59:27 145.90 MHz
Saudisat 1A 25 Apr 17:55:27 17:58:43 20° 41° (NE) 18:01:58 436.775 MHz
Uosat F 25 Apr 17:55:47 17:59:55 26° 265° (W) 18:04:04 435.120 FM
ISS 25 Apr 17:58:33 18:01:00 18° 8° (N) 18:03:26 145.800 FM
JAS-1B 25 Apr 18:06:58 18:12:55 25° 265° (W) 18:18:12 435.800 - 435.900 CW/SSB
UOSAT-12 25 Apr 18:36:01 18:39:40 23° 318° (NW) 18:43:24 437.025 FM, 437.400 FM
JAS-2 25 Apr 19:13:03 19:18:01 36° 68° (ENE) 19:22:45 435.800 - 435.900 CW/SSB, 435.910 FM
AO-7 25 Apr 19:21:56 19:26:32 16° 272° (W) 19:31:10 29.400 - 29.500 MHz
Hamsat 25 Apr 19:28:32 19:32:41 56° 260° (W) 19:36:54 145.90 MHz
SO-67 25 Apr 19:30:43 19:33:34 24° 70° (ENE) 19:36:27 435.3500 MHz FM
Saudisat 1A 25 Apr 19:34:21 19:38:42 59° 240° (WSW) 19:42:59 436.775 MHz
ISS 25 Apr 19:35:03 19:38:19 46° 28° (NNE) 19:41:33 145.800 FM
HO-68 25 Apr 20:16:46 20:21:34 20° 54° (NE) 20:26:22 435.675 MHz FM
STRAND 1 25 Apr 20:19:38 20:24:41 61° 101° (ESE) 20:29:43 ?
JAS-2 25 Apr 20:58:31 21:03:13 28° 264° (W) 21:07:42 435.800 - 435.900 CW/SSB, 435.910 FM
SO-67 25 Apr 21:04:05 21:06:41 20° 266° (W) 21:09:19 435.3500 MHz FM
ISS 25 Apr 21:12:05 21:14:52 24° 225° (SW) 21:17:37 145.800 FM
Oscar 11 25 Apr 21:28:28 21:30:55 15° 63° (ENE) 21:33:21 145.825 FM, Beacon 2401.500 USB
MaSat-1 25 Apr 21:35:45 21:38:18 37° 299° (WNW) 21:40:41 437.345 MHz
STRAND 1 25 Apr 22:00:01 22:03:24 18° 299° (WNW) 22:06:46 ?
SO-50 25 Apr 22:01:02 22:03:49 16° 37° (NE) 22:06:38 436.795 FM
HO-68 25 Apr 22:01:12 22:08:21 89° 253° (WSW) 22:15:34 435.675 MHz FM
PCSat 25 Apr 22:48:48 22:51:30 14° 103° (ESE) 22:54:13 145.825 MHz
Oscar 11 25 Apr 23:02:26 23:06:39 55° 260° (W) 23:10:55 145.825 FM, Beacon 2401.500 USB
FUNcube-1 25 Apr 23:13:15 23:17:21 60° 74° (ENE) 23:21:28 145.950 - 145.970 MHz USB
SO-50 25 Apr 23:40:24 23:45:04 87° 57° (ENE) 23:49:48 436.795 FM
Sapphire 25 Apr 23:45:01 23:50:04 41° 112° (ESE) 23:55:08 437.095 MHz 1200 baud AX-25 AFSK
UOSAT-12 25 Apr 23:45:19 23:47:10 12° 32° (NNE) 23:49:00 437.025 FM, 437.400 FM
HO-68 25 Apr 23:52:53 23:56:58 16° 271° (W) 00:01:05 435.675 MHz FM
PCSat 26 Apr 00:28:46 00:34:11 81° 300° (WNW) 00:39:38 145.825 MHz
FUNcube-1 26 Apr 00:52:50 00:54:11 11° 270° (W) 00:55:32 145.950 - 145.970 MHz USB
KITSAT 1 26 Apr 01:05:47 01:11:03 19° 101° (ESE) 01:16:19 435.175 FM
SO-50 26 Apr 01:23:36 01:24:58 11° 253° (WSW) 01:26:21 436.795 FM
UOSAT-12 26 Apr 01:23:40 01:28:20 57° 53° (NE) 01:32:58 437.025 FM, 437.400 FM
Sapphire 26 Apr 01:28:46 01:33:35 32° 311° (NW) 01:38:25 437.095 MHz 1200 baud AX-25 AFSK
PCSat 26 Apr 02:15:09 02:18:29 16° 321° (NW) 02:21:50 145.825 MHz
Uribyol 2 26 Apr 02:34:23 02:36:54 14° 89° (E) 02:39:25 436.500 FM
